Location: Gisborne
(38.6530°S, 178.0040°E)
Time: 03:04:21
(UTC+13:00)

MetOp-A - Pass Details

Date: 24 January 2019
Orbit: 820 x 821 km, 98.6° (Epoch: 13 October)

Event Time Altitude Azimuth Distance (km) Brightness Sun altitude
Rises 21:56:49 0° 157° (SSE) 3,389 7.6 -15.1°
Reaches altitude 10° 21:59:25 10° 148° (SSE) 2,448 6.7 -15.5°
Maximum altitude 22:04:18 34° 83° (E) 1,345 4.8 -16.2°
Enters shadow 22:06:12 27° 45° (NE) 1,559 5.0 -16.5°
